This is the latest recevied weather packets stored in our database for station/object IZ1UQG-N2. If no packets are shown the sender has not sent any weather packets the latest 10 day(s).
| Time | Temp. | Humidity | Pressure | Rain* | Wind** | Luminosity | Snow |
|---|---|---|---|---|---|---|---|
| 1776953783 | 20.56° C | 46% | 1017.2 hPa | 0 mm | - | 594 W/m² | - |
| 1776953723 | 20.56° C | 45% | 1017.1 hPa | 0 mm | - | 594 W/m² | - |
| 1776953704 | 20.56° C | 45% | 1017.1 hPa | 0 mm | - | 594 W/m² | - |
| 1776953664 | 20.56° C | 45% | 1017.1 hPa | 0 mm | - | 601 W/m² | - |
| 1776953604 | 20.56° C | 46% | 1017.1 hPa | 0 mm | - | 598 W/m² | - |
| 1776953544 | 20.56° C | 46% | 1017.1 hPa | 0 mm | - | 601 W/m² | - |
| 1776953524 | 20.56° C | 46% | 1017.1 hPa | 0 mm | - | 601 W/m² | - |
| 1776953483 | 20.56° C | 46% | 1017.1 hPa | 0 mm | - | 601 W/m² | - |
| 1776953423 | 20.56° C | 46% | 1017.2 hPa | 0 mm | - | 610 W/m² | - |
| 1776953363 | 20.56° C | 46% | 1017.1 hPa | 0 mm | - | 608 W/m² | - |
| 1776953345 | 20.56° C | 46% | 1017.1 hPa | 0 mm | - | 608 W/m² | - |
| 1776953304 | 20.56° C | 46% | 1017.3 hPa | 0 mm | - | 596 W/m² | - |
| 1776953244 | 20.56° C | 46% | 1017.2 hPa | 0 mm | - | 601 W/m² | - |
| 1776953184 | 20.56° C | 46% | 1017.2 hPa | 0 mm | - | 610 W/m² | - |
| 1776953163 | 20.56° C | 46% | 1017.3 hPa | 0 mm | - | 612 W/m² | - |
| 1776953123 | 20.56° C | 46% | 1017.3 hPa | 0 mm | - | 612 W/m² | - |
| 1776953063 | 20.56° C | 46% | 1017.3 hPa | 0 mm | - | 617 W/m² | - |
| 1776953003 | 20.56° C | 46% | 1017.4 hPa | 0 mm | - | 610 W/m² | - |
| 1776952983 | 20.56° C | 46% | 1017.4 hPa | 0 mm | - | 610 W/m² | - |
| 1776952943 | 20.56° C | 46% | 1017.4 hPa | 0 mm | - | 615 W/m² | - |
| 1776952885 | 20° C | 48% | 1017.4 hPa | 0 mm | - | 615 W/m² | - |
| 1776952825 | 20° C | 48% | 1017.4 hPa | 0 mm | - | 619 W/m² | - |
| 1776952804 | 20° C | 48% | 1017.4 hPa | 0 mm | - | 619 W/m² | - |
| 1776952764 | 20° C | 48% | 1017.4 hPa | 0 mm | - | 626 W/m² | - |
| 1776952704 | 20° C | 47% | 1017.4 hPa | 0 mm | - | 645 W/m² | - |
* Rain latest hour (hover to see other rain measurements)
** Current wind speed in m/s (hover to see current wind gust speed)